Tracking 30743 objects as of 21-Jun-2025
HD Live streaming from Space Station
objects crossing your sky now

NOAA 16 DEB

Track NOAA 16 DEB now!
10-day predictions


NORAD ID: 41495
Int'l Code: 2000-055LT
Perigee: 824.1 km
Apogee: 877.0 km
Inclination: 98.7 °
Period: 101.8 minutes
Semi major axis: 7221 km
RCS: Unknown
Launch date: September 21, 2000
Source: United States (US)
Launch site: AIR FORCE WESTERN TEST RANGE (AFWTR)

Note: This is SATELLITE DEBRIS
Your satellite tracking list
Your tracking list is empty




NASA's NSSDC Master Catalog

Two Line Element Set (TLE):
1 41495U 00055LT  25170.26764614  .00002277  00000-0  11977-2 0  9999
2 41495  98.6779 182.4374 0036648 198.3335 161.6520 14.14681582476388
Source of the keplerian elements: AFSPC